Time,TemperatureF,DewpointF,PressureIn,WindDirection,WindDirectionDegrees,WindSpeedMPH,WindSpeedGustMPH,Humidity,HourlyPrecipIn,Conditions,Clouds,dailyrainin,SoftwareType,DateUTC
2013-06-04 00:00:00,67.3,55.9,29.15,South,187,2.2,5.4,67,0.00,,---,0.00,VWS V14.00,2013-06-04 05:00:00,
2013-06-04 00:06:00,67.3,55.9,29.15,SSW,197,0.0,4.0,67,0.00,,---,0.00,VWS V14.00,2013-06-04 05:06:00,
2013-06-04 00:09:00,67.3,55.9,29.15,South,182,0.0,4.0,67,0.00,,---,0.00,VWS V14.00,2013-06-04 05:09:00,
2013-06-04 00:15:00,67.3,55.9,29.15,South,183,4.9,5.4,67,0.00,,---,0.00,VWS V14.00,2013-06-04 05:15:00,
2013-06-04 00:21:00,67.3,55.9,29.15,SE,126,2.7,4.9,67,0.00,,---,0.00,VWS V14.00,2013-06-04 05:21:00,
2013-06-04 00:24:00,67.3,55.9,29.15,ESE,108,0.0,4.9,67,0.00,,---,0.00,VWS V14.00,2013-06-04 05:24:00,
2013-06-04 00:27:00,67.3,55.9,29.15,SSE,154,0.0,4.9,67,0.00,,---,0.00,VWS V14.00,2013-06-04 05:27:00,
2013-06-04 00:30:00,67.3,55.9,29.15,SSE,154,0.0,4.9,67,0.00,,---,0.00,VWS V14.00,2013-06-04 05:30:00,
2013-06-04 00:36:00,64.7,56.6,29.15,SSE,161,0.0,3.6,75,0.00,,---,0.00,VWS V14.00,2013-06-04 05:36:00,
2013-06-04 00:42:00,64.6,56.5,29.15,SSE,161,0.0,3.6,75,0.00,,---,0.00,VWS V14.00,2013-06-04 05:42:00,
2013-06-04 00:45:00,64.6,56.5,29.15,SSE,161,0.0,3.6,75,0.00,,---,0.00,VWS V14.00,2013-06-04 05:45:00,
2013-06-04 00:51:00,64.6,56.5,29.15,South,179,0.0,3.1,75,0.00,,---,0.00,VWS V14.00,2013-06-04 05:51:00,
2013-06-04 00:54:00,64.4,56.3,29.18,SE,146,2.7,5.8,75,0.00,,---,0.00,VWS V14.00,2013-06-04 05:54:00,
2013-06-04 00:57:00,64.4,56.7,29.18,SE,146,0.0,5.8,76,0.00,,---,0.00,VWS V14.00,2013-06-04 05:57:00,
2013-06-04 01:00:00,64.4,56.7,29.18,SE,146,0.0,5.8,76,0.00,,---,0.00,VWS V14.00,2013-06-04 06:00:00,
2013-06-04 01:03:00,64.4,56.7,29.18,SE,146,0.0,0.0,76,0.00,,---,0.00,VWS V14.00,2013-06-04 06:03:00,
2013-06-04 01:07:00,64.4,56.7,29.18,SE,146,0.0,0.0,76,0.00,,---,0.00,VWS V14.00,2013-06-04 06:07:00,
2013-06-04 01:10:00,63.8,56.5,29.15,SE,146,0.0,0.0,77,0.00,,---,0.00,VWS V14.00,2013-06-04 06:10:00,
2013-06-04 01:13:00,63.8,56.9,29.15,SE,146,0.0,0.0,78,0.00,,---,0.00,VWS V14.00,2013-06-04 06:13:00,
2013-06-04 01:15:00,63.8,56.9,29.15,SE,146,0.0,0.0,78,0.00,,---,0.00,VWS V14.00,2013-06-04 06:15:00,
2013-06-04 01:19:00,63.8,56.9,29.15,SE,146,0.0,0.0,78,0.00,,---,0.00,VWS V14.00,2013-06-04 06:19:00,
2013-06-04 01:25:00,63.3,56.7,29.18,SE,146,0.0,0.0,79,0.00,,---,0.00,VWS V14.00,2013-06-04 06:25:00,
2013-06-04 01:28:00,63.1,56.9,29.18,SE,146,0.0,0.0,80,0.00,,---,0.00,VWS V14.00,2013-06-04 06:28:00,
2013-06-04 01:30:00,63.1,56.9,29.18,SE,146,0.0,0.0,80,0.00,,---,0.00,VWS V14.00,2013-06-04 06:30:00,
2013-06-04 01:34:00,63.1,56.9,29.18,SE,146,0.0,0.0,80,0.00,,---,0.00,VWS V14.00,2013-06-04 06:34:00,
2013-06-04 01:40:00,62.9,57.0,29.15,SE,146,0.0,0.0,81,0.00,,---,0.00,VWS V14.00,2013-06-04 06:40:00,
2013-06-04 01:43:00,62.8,56.8,29.15,SSE,159,0.0,0.0,81,0.00,,---,0.00,VWS V14.00,2013-06-04 06:43:00,
2013-06-04 01:45:00,62.8,56.8,29.15,SSE,166,0.0,2.7,81,0.00,,---,0.00,VWS V14.00,2013-06-04 06:45:00,
2013-06-04 01:52:00,62.9,57.0,29.15,SSE,166,0.0,0.0,81,0.00,,---,0.00,VWS V14.00,2013-06-04 06:52:00,
2013-06-04 01:55:00,62.8,56.8,29.18,SSE,166,0.0,0.0,81,0.00,,---,0.00,VWS V14.00,2013-06-04 06:55:00,
2013-06-04 01:58:00,62.8,56.8,29.18,SSE,166,0.0,0.0,81,0.00,,---,0.00,VWS V14.00,2013-06-04 06:58:00,
2013-06-04 02:00:00,62.8,56.8,29.18,SSE,166,0.0,0.0,81,0.00,,---,0.00,VWS V14.00,2013-06-04 07:00:00,
2013-06-04 02:04:00,62.8,56.8,29.18,SSE,166,0.0,0.0,81,0.00,,---,0.00,VWS V14.00,2013-06-04 07:04:00,
2013-06-04 02:07:00,62.8,56.8,29.18,SSE,166,0.0,0.0,81,0.00,,---,0.00,VWS V14.00,2013-06-04 07:07:00,
2013-06-04 02:10:00,62.8,56.8,29.15,SSE,166,0.0,0.0,81,0.00,,---,0.00,VWS V14.00,2013-06-04 07:10:00,
2013-06-04 02:13:00,62.6,56.7,29.15,SSE,166,0.0,0.0,81,0.00,,---,0.00,VWS V14.00,2013-06-04 07:13:00,
2013-06-04 02:15:00,62.6,56.7,29.15,SSE,166,0.0,0.0,81,0.00,,---,0.00,VWS V14.00,2013-06-04 07:15:00,
2013-06-04 02:19:00,62.8,56.8,29.15,SSE,166,0.0,0.0,81,0.00,,---,0.00,VWS V14.00,2013-06-04 07:19:00,
2013-06-04 02:25:00,62.6,56.7,29.15,SE,142,0.0,0.0,81,0.00,,---,0.00,VWS V14.00,2013-06-04 07:25:00,
2013-06-04 02:28:00,62.6,56.7,29.15,SE,142,0.0,0.0,81,0.00,,---,0.00,VWS V14.00,2013-06-04 07:28:00,
2013-06-04 02:30:00,62.6,56.7,29.15,SE,142,0.0,0.0,81,0.00,,---,0.00,VWS V14.00,2013-06-04 07:30:00,
2013-06-04 02:34:00,62.4,56.5,29.15,SE,142,0.0,0.0,81,0.00,,---,0.00,VWS V14.00,2013-06-04 07:34:00,
2013-06-04 02:37:00,62.4,56.5,29.15,SE,142,0.0,0.0,81,0.00,,---,0.00,VWS V14.00,2013-06-04 07:37:00,
2013-06-04 02:40:00,62.6,56.7,29.15,East,93,0.0,0.0,81,0.00,,---,0.00,VWS V14.00,2013-06-04 07:40:00,
2013-06-04 02:43:00,62.6,57.0,29.15,South,181,2.2,3.1,82,0.00,,---,0.00,VWS V14.00,2013-06-04 07:43:00,
2013-06-04 02:49:00,62.8,56.8,29.15,South,176,2.7,3.1,81,0.00,,---,0.00,VWS V14.00,2013-06-04 07:49:00,
2013-06-04 02:52:00,62.8,56.8,29.15,SE,140,2.7,3.1,81,0.00,,---,0.00,VWS V14.00,2013-06-04 07:52:00,
2013-06-04 02:55:00,63.1,57.2,29.15,SSE,152,3.1,3.1,81,0.00,,---,0.00,VWS V14.00,2013-06-04 07:55:00,
2013-06-04 02:58:00,63.1,56.9,29.15,South,171,3.1,4.9,80,0.00,,---,0.00,VWS V14.00,2013-06-04 07:58:00,
2013-06-04 03:01:00,62.9,56.7,29.15,South,175,3.6,4.9,80,0.00,,---,0.00,VWS V14.00,2013-06-04 08:01:00,
2013-06-04 03:07:00,62.8,56.2,29.15,South,172,0.0,5.8,79,0.00,,---,0.00,VWS V14.00,2013-06-04 08:07:00,
2013-06-04 03:10:00,62.8,56.5,29.15,South,181,0.0,5.8,80,0.00,,---,0.00,VWS V14.00,2013-06-04 08:10:00,
2013-06-04 03:13:00,62.6,56.3,29.15,ESE,103,0.0,5.8,80,0.00,,---,0.00,VWS V14.00,2013-06-04 08:13:00,
2013-06-04 03:16:00,62.8,56.5,29.15,SSE,158,0.0,2.2,80,0.00,,---,0.00,VWS V14.00,2013-06-04 08:16:00,
2013-06-04 03:19:00,62.8,56.2,29.15,South,170,0.0,4.0,79,0.00,,---,0.00,VWS V14.00,2013-06-04 08:19:00,
2013-06-04 03:22:00,62.6,56.0,29.15,South,170,0.0,4.0,79,0.00,,---,0.00,VWS V14.00,2013-06-04 08:22:00,
2013-06-04 03:25:00,62.4,55.8,29.15,South,170,0.0,4.0,79,0.00,,---,0.00,VWS V14.00,2013-06-04 08:25:00,
2013-06-04 03:28:00,62.4,55.8,29.15,South,170,0.0,4.0,79,0.00,,---,0.00,VWS V14.00,2013-06-04 08:28:00,
2013-06-04 03:30:00,62.4,55.8,29.15,South,169,0.0,4.0,79,0.00,,---,0.00,VWS V14.00,2013-06-04 08:30:00,
2013-06-04 03:31:00,62.2,56.0,29.15,South,170,0.0,0.0,80,0.00,,---,0.00,VWS V14.00,2013-06-04 08:31:00,
2013-06-04 03:34:00,62.2,56.0,29.15,South,170,0.0,0.0,80,0.00,,---,0.00,VWS V14.00,2013-06-04 08:34:00,
2013-06-04 03:37:00,62.2,56.0,29.15,South,170,0.0,0.0,80,0.00,,---,0.00,VWS V14.00,2013-06-04 08:37:00,
2013-06-04 03:40:00,62.0,55.8,29.15,South,170,0.0,0.0,80,0.00,,---,0.00,VWS V14.00,2013-06-04 08:40:00,
2013-06-04 03:45:00,62.0,55.8,29.15,South,170,0.0,0.0,80,0.00,,---,0.00,VWS V14.00,2013-06-04 08:45:00,
2013-06-04 03:46:00,61.9,55.6,29.15,South,170,0.0,0.0,80,0.00,,---,0.00,VWS V14.00,2013-06-04 08:46:00,
2013-06-04 03:52:00,61.9,55.6,29.15,South,170,0.0,3.1,80,0.00,,---,0.00,VWS V14.00,2013-06-04 08:52:00,
2013-06-04 03:55:00,61.9,55.6,29.15,South,170,0.0,3.1,80,0.00,,---,0.00,VWS V14.00,2013-06-04 08:55:00,
2013-06-04 03:58:00,61.9,55.6,29.15,South,170,0.0,3.1,80,0.00,,---,0.00,VWS V14.00,2013-06-04 08:58:00,
2013-06-04 04:00:00,61.9,55.6,29.15,South,170,0.0,3.1,80,0.00,,---,0.00,VWS V14.00,2013-06-04 09:00:00,
2013-06-04 04:01:00,61.9,55.6,29.15,South,170,0.0,0.0,80,0.00,,---,0.00,VWS V14.00,2013-06-04 09:01:00,
2013-06-04 04:07:00,61.9,56.0,29.15,SE,132,2.7,2.7,81,0.00,,---,0.00,VWS V14.00,2013-06-04 09:07:00,
2013-06-04 04:10:00,62.0,56.2,29.15,SE,143,0.0,2.7,81,0.00,,---,0.00,VWS V14.00,2013-06-04 09:10:00,
2013-06-04 04:13:00,62.0,56.2,29.15,SE,134,0.0,2.7,81,0.00,,---,0.00,VWS V14.00,2013-06-04 09:13:00,
2013-06-04 04:16:00,61.9,56.0,29.15,SSE,164,0.0,2.7,81,0.00,,---,0.00,VWS V14.00,2013-06-04 09:16:00,
2013-06-04 04:19:00,61.9,56.0,29.15,SSE,164,0.0,2.7,81,0.00,,---,0.00,VWS V14.00,2013-06-04 09:19:00,
2013-06-04 04:26:00,62.0,56.2,29.12,SSE,164,0.0,2.7,81,0.00,,---,0.00,VWS V14.00,2013-06-04 09:26:00,
2013-06-04 04:29:00,61.9,56.0,29.12,SSW,205,0.0,2.7,81,0.00,,---,0.00,VWS V14.00,2013-06-04 09:29:00,
2013-06-04 04:30:00,61.9,56.0,29.12,East,93,0.0,2.7,81,0.00,,---,0.00,VWS V14.00,2013-06-04 09:30:00,
2013-06-04 04:38:00,61.5,55.3,29.12,SSE,154,0.0,0.0,80,0.00,,---,0.00,VWS V14.00,2013-06-04 09:38:00,
2013-06-04 04:41:00,61.5,55.6,29.12,SSE,154,0.0,0.0,81,0.00,,---,0.00,VWS V14.00,2013-06-04 09:41:00,
2013-06-04 04:44:00,61.5,55.6,29.12,SSE,154,0.0,0.0,81,0.00,,---,0.00,VWS V14.00,2013-06-04 09:44:00,
2013-06-04 04:45:00,61.3,55.5,29.12,ESE,118,0.0,0.0,81,0.00,,---,0.00,VWS V14.00,2013-06-04 09:45:00,
2013-06-04 04:50:00,61.3,55.5,29.12,SSE,167,3.1,3.6,81,0.00,,---,0.00,VWS V14.00,2013-06-04 09:50:00,
2013-06-04 04:53:00,61.3,55.5,29.12,SE,125,0.0,3.6,81,0.00,,---,0.00,VWS V14.00,2013-06-04 09:53:00,
2013-06-04 04:59:00,61.3,55.5,29.12,SE,125,0.0,3.6,81,0.00,,---,0.00,VWS V14.00,2013-06-04 09:59:00,
2013-06-04 05:00:00,61.3,55.5,29.12,SE,125,0.0,3.6,81,0.00,,---,0.00,VWS V14.00,2013-06-04 10:00:00,
2013-06-04 05:02:00,61.1,55.3,29.12,SE,125,0.0,0.0,81,0.00,,---,0.00,VWS V14.00,2013-06-04 10:02:00,
2013-06-04 05:08:00,61.1,55.3,29.12,SE,125,0.0,0.0,81,0.00,,---,0.00,VWS V14.00,2013-06-04 10:08:00,
2013-06-04 05:11:00,61.0,55.4,29.15,SE,125,0.0,0.0,82,0.00,,---,0.00,VWS V14.00,2013-06-04 10:11:00,
2013-06-04 05:14:00,61.0,55.4,29.15,SE,125,0.0,0.0,82,0.00,,---,0.00,VWS V14.00,2013-06-04 10:14:00,
2013-06-04 05:15:00,61.0,55.4,29.15,SE,125,0.0,0.0,82,0.00,,---,0.00,VWS V14.00,2013-06-04 10:15:00,
2013-06-04 05:23:00,60.6,55.1,29.15,SE,125,0.0,0.0,82,0.00,,---,0.00,VWS V14.00,2013-06-04 10:23:00,
2013-06-04 05:29:00,60.4,55.2,29.15,SE,125,0.0,0.0,83,0.00,,---,0.00,VWS V14.00,2013-06-04 10:29:00,
2013-06-04 05:30:00,60.4,55.2,29.15,SE,125,0.0,0.0,83,0.00,,---,0.00,VWS V14.00,2013-06-04 10:30:00,
2013-06-04 05:32:00,60.4,55.2,29.15,SE,125,0.0,0.0,83,0.00,,---,0.00,VWS V14.00,2013-06-04 10:32:00,
2013-06-04 05:35:00,60.4,55.2,29.15,SE,125,0.0,0.0,83,0.00,,---,0.00,VWS V14.00,2013-06-04 10:35:00,
2013-06-04 05:41:00,60.2,55.1,29.18,SE,125,0.0,0.0,83,0.00,,---,0.00,VWS V14.00,2013-06-04 10:41:00,
2013-06-04 05:44:00,60.2,55.1,29.18,SE,125,0.0,0.0,83,0.00,,---,0.00,VWS V14.00,2013-06-04 10:44:00,
2013-06-04 05:50:00,60.2,55.1,29.18,SE,125,0.0,0.0,83,0.00,,---,0.00,VWS V14.00,2013-06-04 10:50:00,
2013-06-04 05:53:00,60.2,55.1,29.18,SE,125,0.0,0.0,83,0.00,,---,0.00,VWS V14.00,2013-06-04 10:53:00,
2013-06-04 05:59:00,60.1,54.9,29.18,SE,125,0.0,0.0,83,0.00,,---,0.00,VWS V14.00,2013-06-04 10:59:00,
2013-06-04 06:00:00,60.1,55.2,29.18,SE,125,0.0,0.0,84,0.00,,---,0.00,VWS V14.00,2013-06-04 11:00:00,
2013-06-04 06:05:00,60.1,55.2,29.18,SE,125,0.0,0.0,84,0.00,,---,0.00,VWS V14.00,2013-06-04 11:05:00,
2013-06-04 06:08:00,60.1,55.2,29.18,SE,125,0.0,0.0,84,0.00,,---,0.00,VWS V14.00,2013-06-04 11:08:00,
2013-06-04 06:14:00,60.2,55.7,29.18,SE,125,0.0,0.0,85,0.00,,---,0.00,VWS V14.00,2013-06-04 11:14:00,
2013-06-04 06:15:00,60.2,55.7,29.18,SE,125,0.0,0.0,85,0.00,,---,0.00,VWS V14.00,2013-06-04 11:15:00,
2013-06-04 06:20:00,60.6,56.1,29.18,South,182,0.0,3.1,85,0.00,,---,0.00,VWS V14.00,2013-06-04 11:20:00,
2013-06-04 06:26:00,61.0,56.1,29.18,SE,131,2.7,3.6,84,0.00,,---,0.00,VWS V14.00,2013-06-04 11:26:00,
2013-06-04 06:29:00,61.0,56.1,29.18,South,171,0.0,3.6,84,0.00,,---,0.00,VWS V14.00,2013-06-04 11:29:00,
2013-06-04 06:35:00,61.3,56.1,29.18,SSE,157,0.0,3.1,83,0.00,,---,0.00,VWS V14.00,2013-06-04 11:35:00,
2013-06-04 06:38:00,61.5,56.0,29.18,SSE,157,0.0,3.1,82,0.00,,---,0.00,VWS V14.00,2013-06-04 11:38:00,
2013-06-04 06:41:00,61.5,56.0,29.18,SSE,158,0.0,3.1,82,0.00,,---,0.00,VWS V14.00,2013-06-04 11:41:00,
2013-06-04 06:44:00,61.7,56.1,29.18,SSE,158,0.0,3.1,82,0.00,,---,0.00,VWS V14.00,2013-06-04 11:44:00,
2013-06-04 06:45:00,61.7,56.1,29.18,SSE,158,0.0,3.1,82,0.00,,---,0.00,VWS V14.00,2013-06-04 11:45:00,
2013-06-04 06:50:00,61.9,56.0,29.18,SSE,157,0.0,0.0,81,0.00,,---,0.00,VWS V14.00,2013-06-04 11:50:00,
2013-06-04 06:53:00,62.0,56.2,29.18,SSE,157,0.0,0.0,81,0.00,,---,0.00,VWS V14.00,2013-06-04 11:53:00,
2013-06-04 06:56:00,62.2,56.3,29.18,SSE,157,0.0,0.0,81,0.00,,---,0.00,VWS V14.00,2013-06-04 11:56:00,
2013-06-04 06:59:00,62.4,56.2,29.18,SSE,158,0.0,0.0,80,0.00,,---,0.00,VWS V14.00,2013-06-04 11:59:00,
2013-06-04 07:00:00,62.4,56.2,29.18,SSE,158,0.0,0.0,80,0.00,,---,0.00,VWS V14.00,2013-06-04 12:00:00,
2013-06-04 07:02:00,62.6,56.3,29.18,SSE,157,0.0,0.0,80,0.00,,---,0.00,VWS V14.00,2013-06-04 12:02:00,
2013-06-04 07:05:00,62.6,56.3,29.18,SSE,157,0.0,0.0,80,0.00,,---,0.00,VWS V14.00,2013-06-04 12:05:00,
2013-06-04 07:08:00,62.6,56.3,29.18,South,174,0.0,0.0,80,0.00,,---,0.00,VWS V14.00,2013-06-04 12:08:00,
2013-06-04 07:11:00,62.6,56.3,29.18,SE,137,0.0,2.2,80,0.00,,---,0.00,VWS V14.00,2013-06-04 12:11:00,
2013-06-04 07:15:00,63.5,56.9,29.18,SSE,158,2.7,3.1,79,0.00,,---,0.00,VWS V14.00,2013-06-04 12:15:00,
2013-06-04 07:17:00,63.5,56.9,29.18,SE,124,0.0,3.1,79,0.00,,---,0.00,VWS V14.00,2013-06-04 12:17:00,
2013-06-04 07:20:00,63.7,56.7,29.18,East,88,2.7,4.9,78,0.00,,---,0.00,VWS V14.00,2013-06-04 12:20:00,
2013-06-04 07:23:00,63.7,56.7,29.18,SSE,168,2.7,4.9,78,0.00,,---,0.00,VWS V14.00,2013-06-04 12:23:00,
2013-06-04 07:26:00,63.7,56.7,29.15,SSE,167,0.0,4.9,78,0.00,,---,0.00,VWS V14.00,2013-06-04 12:26:00,
2013-06-04 07:30:00,63.7,56.7,29.15,South,176,2.7,6.3,78,0.00,,---,0.00,VWS V14.00,2013-06-04 12:30:00,
2013-06-04 07:32:00,64.4,57.0,29.15,SSE,161,5.4,5.4,77,0.00,,---,0.00,VWS V14.00,2013-06-04 12:32:00,
2013-06-04 07:36:00,64.6,56.8,29.15,South,171,5.4,6.3,76,0.00,,---,0.00,VWS V14.00,2013-06-04 12:36:00,
2013-06-04 07:39:00,64.7,57.0,29.18,SSE,157,6.3,6.3,76,0.00,,---,0.00,VWS V14.00,2013-06-04 12:39:00,
2013-06-04 07:45:00,64.7,56.6,29.18,South,169,4.0,7.6,75,0.00,,---,0.00,VWS V14.00,2013-06-04 12:45:00,
2013-06-04 07:48:00,64.9,56.8,29.18,South,170,4.0,5.8,75,0.00,,---,0.00,VWS V14.00,2013-06-04 12:48:00,
2013-06-04 07:51:00,64.9,56.8,29.18,South,180,5.4,7.2,75,0.00,,---,0.00,VWS V14.00,2013-06-04 12:51:00,
2013-06-04 07:57:00,65.1,56.6,29.18,SSE,150,5.4,8.1,74,0.00,,---,0.00,VWS V14.00,2013-06-04 12:57:00,
2013-06-04 08:00:00,65.3,56.8,29.18,SSE,165,4.0,8.1,74,0.00,,---,0.00,VWS V14.00,2013-06-04 13:00:00,
2013-06-04 08:06:00,65.5,57.0,29.18,SSE,155,3.6,5.8,74,0.00,,---,0.00,VWS V14.00,2013-06-04 13:06:00,
2013-06-04 08:09:00,65.5,57.0,29.15,SE,126,3.1,5.8,74,0.00,,---,0.00,VWS V14.00,2013-06-04 13:09:00,
2013-06-04 08:12:00,66.0,57.5,29.15,SE,130,5.4,8.3,74,0.00,,---,0.00,VWS V14.00,2013-06-04 13:12:00,
2013-06-04 08:15:00,66.0,57.5,29.15,South,183,8.3,8.7,74,0.00,,---,0.00,VWS V14.00,2013-06-04 13:15:00,
2013-06-04 08:18:00,66.0,57.5,29.15,SSE,156,5.4,8.3,74,0.00,,---,0.00,VWS V14.00,2013-06-04 13:18:00,
2013-06-04 08:21:00,66.0,57.5,29.15,SSW,206,8.7,8.7,74,0.00,,---,0.00,VWS V14.00,2013-06-04 13:21:00,
2013-06-04 08:24:00,66.0,57.5,29.15,SE,144,7.6,10.5,74,0.00,,---,0.00,VWS V14.00,2013-06-04 13:24:00,
2013-06-04 08:27:00,66.5,56.9,29.15,SSW,194,8.7,10.5,71,0.00,,---,0.00,VWS V14.00,2013-06-04 13:27:00,
2013-06-04 08:30:00,66.5,56.9,29.15,SSE,156,5.8,10.5,71,0.00,,---,0.00,VWS V14.00,2013-06-04 13:30:00,
2013-06-04 08:36:00,66.5,56.9,29.15,South,171,5.4,8.7,71,0.00,,---,0.00,VWS V14.00,2013-06-04 13:36:00,
2013-06-04 08:39:00,66.5,56.9,29.18,SSE,165,5.4,8.7,71,0.00,,---,0.00,VWS V14.00,2013-06-04 13:39:00,
2013-06-04 08:45:00,66.5,56.9,29.18,SE,142,4.0,8.7,71,0.00,,---,0.00,VWS V14.00,2013-06-04 13:45:00,
2013-06-04 08:48:00,66.5,56.9,29.18,South,169,7.6,7.6,71,0.00,,---,0.00,VWS V14.00,2013-06-04 13:48:00,
2013-06-04 08:54:00,66.5,56.9,29.18,SSE,161,8.1,8.7,71,0.00,,---,0.00,VWS V14.00,2013-06-04 13:54:00,
2013-06-04 08:57:00,66.5,56.9,29.18,SE,143,5.8,8.7,71,0.00,,---,0.00,VWS V14.00,2013-06-04 13:57:00,
2013-06-04 09:00:00,66.5,56.9,29.18,SSE,163,5.8,8.7,71,0.00,,---,0.00,VWS V14.00,2013-06-04 14:00:00,
2013-06-04 09:03:00,67.4,57.3,29.18,South,184,5.4,7.6,70,0.00,,---,0.00,VWS V14.00,2013-06-04 14:03:00,
2013-06-04 09:09:00,67.4,57.3,29.18,South,179,5.8,7.6,70,0.00,,---,0.00,VWS V14.00,2013-06-04 14:09:00,
2013-06-04 09:15:00,67.4,57.3,29.18,SSE,157,4.9,7.6,70,0.00,,---,0.00,VWS V14.00,2013-06-04 14:15:00,
2013-06-04 09:21:00,67.4,57.3,29.18,SSE,150,4.0,6.3,70,0.00,,---,0.00,VWS V14.00,2013-06-04 14:21:00,
2013-06-04 09:24:00,67.4,57.3,29.18,South,172,5.8,6.3,70,0.00,,---,0.00,VWS V14.00,2013-06-04 14:24:00,
2013-06-04 09:27:00,67.4,57.3,29.18,SSE,149,4.0,8.1,70,0.00,,---,0.00,VWS V14.00,2013-06-04 14:27:00,
2013-06-04 09:30:00,67.4,57.3,29.18,South,176,5.8,8.1,70,0.00,,---,0.00,VWS V14.00,2013-06-04 14:30:00,
2013-06-04 09:36:00,67.4,57.3,29.18,South,169,5.4,7.2,70,0.00,,---,0.00,VWS V14.00,2013-06-04 14:36:00,
2013-06-04 09:39:00,67.4,57.3,29.18,South,173,6.3,7.2,70,0.00,,---,0.00,VWS V14.00,2013-06-04 14:39:00,
2013-06-04 09:42:00,67.4,57.3,29.18,SSE,153,5.8,8.1,70,0.00,,---,0.00,VWS V14.00,2013-06-04 14:42:00,
2013-06-04 09:45:00,67.4,57.3,29.18,South,170,6.3,8.1,70,0.00,,---,0.00,VWS V14.00,2013-06-04 14:45:00,
2013-06-04 09:51:00,67.4,57.3,29.18,SSE,153,5.4,6.3,70,0.00,,---,0.00,VWS V14.00,2013-06-04 14:51:00,
2013-06-04 09:54:00,67.4,57.3,29.21,SSE,163,4.0,6.3,70,0.00,,---,0.00,VWS V14.00,2013-06-04 14:54:00,
2013-06-04 09:57:00,67.4,57.3,29.21,SSE,165,4.0,6.3,70,0.00,,---,0.00,VWS V14.00,2013-06-04 14:57:00,
2013-06-04 10:00:00,67.4,57.3,29.21,SSE,168,3.1,5.4,70,0.00,,---,0.00,VWS V14.00,2013-06-04 15:00:00,
2013-06-04 10:03:00,67.4,57.3,29.21,SSE,153,3.6,5.4,70,0.00,,---,0.00,VWS V14.00,2013-06-04 15:03:00,
2013-06-04 10:06:00,67.4,57.3,29.21,SE,144,3.6,5.4,70,0.00,,---,0.00,VWS V14.00,2013-06-04 15:06:00,
2013-06-04 10:09:00,67.4,57.3,29.18,SSE,166,3.1,5.4,70,0.00,,---,0.00,VWS V14.00,2013-06-04 15:09:00,
2013-06-04 10:12:00,67.4,57.3,29.18,SSE,152,4.0,5.4,70,0.00,,---,0.00,VWS V14.00,2013-06-04 15:12:00,
2013-06-04 10:15:00,67.4,57.3,29.18,SSE,166,3.6,5.4,70,0.00,,---,0.00,VWS V14.00,2013-06-04 15:15:00,
2013-06-04 10:18:00,67.4,57.3,29.18,SSE,166,3.6,4.9,70,0.00,,---,0.00,VWS V14.00,2013-06-04 15:18:00,
2013-06-04 10:21:00,67.4,57.3,29.18,South,178,4.0,4.9,70,0.00,,---,0.00,VWS V14.00,2013-06-04 15:21:00,
2013-06-04 10:27:00,67.4,57.3,29.18,South,179,2.7,4.9,70,0.00,,---,0.00,VWS V14.00,2013-06-04 15:27:00,
2013-06-04 10:30:00,67.4,57.3,29.18,South,179,0.0,4.9,70,0.00,,---,0.00,VWS V14.00,2013-06-04 15:30:00,
2013-06-04 10:36:00,67.4,57.3,29.18,SSE,158,0.0,3.1,70,0.00,,---,0.00,VWS V14.00,2013-06-04 15:36:00,
2013-06-04 10:39:00,67.4,57.3,29.21,SSE,167,4.0,4.0,70,0.00,,---,0.00,VWS V14.00,2013-06-04 15:39:00,
2013-06-04 10:42:00,67.4,57.3,29.21,SSE,167,2.7,4.0,70,0.00,,---,0.00,VWS V14.00,2013-06-04 15:42:00,
2013-06-04 10:45:00,67.4,57.3,29.21,South,170,3.6,5.8,70,0.00,,---,0.00,VWS V14.00,2013-06-04 15:45:00,
2013-06-04 10:49:00,67.4,57.3,29.21,SSE,150,5.4,5.8,70,0.00,,---,0.00,VWS V14.00,2013-06-04 15:49:00,
2013-06-04 10:55:00,67.4,57.3,29.21,South,176,4.0,5.8,70,0.00,,---,0.00,VWS V14.00,2013-06-04 15:55:00,
2013-06-04 11:00:00,67.4,57.3,29.21,SSE,158,4.9,5.8,70,0.00,,---,0.00,VWS V14.00,2013-06-04 16:00:00,
2013-06-04 11:01:00,67.4,57.3,29.21,South,171,4.9,5.8,70,0.00,,---,0.00,VWS V14.00,2013-06-04 16:01:00,
2013-06-04 11:04:00,67.4,57.3,29.21,SSE,168,5.8,6.3,70,0.00,,---,0.00,VWS V14.00,2013-06-04 16:04:00,
2013-06-04 11:07:00,67.4,57.3,29.21,SSE,164,4.5,6.3,70,0.00,,---,0.00,VWS V14.00,2013-06-04 16:07:00,
2013-06-04 11:13:00,67.4,57.3,29.18,South,176,5.8,6.3,70,0.00,,---,0.00,VWS V14.00,2013-06-04 16:13:00,
2013-06-04 11:15:00,67.4,57.3,29.18,South,176,0.0,6.3,70,0.00,,---,0.00,VWS V14.00,2013-06-04 16:15:00,
2013-06-04 11:16:00,67.4,57.3,29.18,South,176,0.0,3.1,70,0.00,,---,0.00,VWS V14.00,2013-06-04 16:16:00,
2013-06-04 11:19:00,67.4,57.3,29.18,South,186,4.5,5.4,70,0.00,,---,0.00,VWS V14.00,2013-06-04 16:19:00,
2013-06-04 11:22:00,67.4,57.3,29.18,SSE,163,3.6,5.4,70,0.00,,---,0.00,VWS V14.00,2013-06-04 16:22:00,
2013-06-04 11:25:00,67.4,57.3,29.18,South,178,3.6,5.4,70,0.00,,---,0.00,VWS V14.00,2013-06-04 16:25:00,
2013-06-04 11:28:00,67.4,57.3,29.18,South,172,3.6,5.4,70,0.00,,---,0.00,VWS V14.00,2013-06-04 16:28:00,
2013-06-04 11:30:00,67.4,57.3,29.18,South,169,4.0,5.4,70,0.00,,---,0.00,VWS V14.00,2013-06-04 16:30:00,
2013-06-04 11:31:00,67.4,57.3,29.18,South,170,4.0,4.0,70,0.00,,---,0.00,VWS V14.00,2013-06-04 16:31:00,
2013-06-04 11:34:00,67.4,57.3,29.18,SSE,156,4.0,5.4,70,0.00,,---,0.00,VWS V14.00,2013-06-04 16:34:00,
2013-06-04 11:37:00,67.4,57.3,29.18,SSE,166,2.7,5.4,70,0.00,,---,0.00,VWS V14.00,2013-06-04 16:37:00,
2013-06-04 11:40:00,67.4,57.3,29.18,South,171,4.0,5.4,70,0.00,,---,0.00,VWS V14.00,2013-06-04 16:40:00,
2013-06-04 11:43:00,67.4,57.3,29.18,SSE,164,4.0,5.4,70,0.00,,---,0.00,VWS V14.00,2013-06-04 16:43:00,
2013-06-04 11:45:00,67.4,57.3,29.18,South,175,4.9,5.4,70,0.00,,---,0.00,VWS V14.00,2013-06-04 16:45:00,
2013-06-04 11:46:00,67.4,57.3,29.18,SSE,163,4.9,4.9,70,0.00,,---,0.00,VWS V14.00,2013-06-04 16:46:00,
2013-06-04 11:49:00,67.4,57.3,29.18,SE,138,3.1,4.9,70,0.00,,---,0.00,VWS V14.00,2013-06-04 16:49:00,
2013-06-04 11:52:00,67.4,57.3,29.18,South,181,2.7,4.9,70,0.00,,---,0.00,VWS V14.00,2013-06-04 16:52:00,
2013-06-04 11:55:00,67.4,57.3,29.18,SSE,156,2.7,5.4,70,0.00,,---,0.00,VWS V14.00,2013-06-04 16:55:00,
2013-06-04 11:58:00,67.4,57.3,29.18,South,180,3.6,5.4,70,0.00,,---,0.00,VWS V14.00,2013-06-04 16:58:00,
2013-06-04 12:00:00,67.4,57.3,29.18,South,172,4.9,5.8,70,0.00,,---,0.00,VWS V14.00,2013-06-04 17:00:00,
2013-06-04 12:04:00,67.4,57.3,29.18,SE,139,4.9,5.4,70,0.00,,---,0.00,VWS V14.00,2013-06-04 17:04:00,
2013-06-04 12:07:00,67.4,57.3,29.18,South,176,5.4,5.8,70,0.00,,---,0.00,VWS V14.00,2013-06-04 17:07:00,
2013-06-04 12:10:00,67.4,57.3,29.18,SSE,166,3.6,5.8,70,0.00,,---,0.00,VWS V14.00,2013-06-04 17:10:00,
2013-06-04 12:13:00,67.4,57.3,29.18,South,175,5.8,5.8,70,0.00,,---,0.00,VWS V14.00,2013-06-04 17:13:00,
2013-06-04 12:15:00,67.4,57.3,29.18,South,173,5.8,5.8,70,0.00,,---,0.00,VWS V14.00,2013-06-04 17:15:00,
2013-06-04 12:16:00,67.4,57.3,29.18,South,188,5.4,5.8,70,0.00,,---,0.00,VWS V14.00,2013-06-04 17:16:00,
2013-06-04 12:22:00,67.4,57.3,29.18,SSE,165,3.1,6.3,70,0.00,,---,0.00,VWS V14.00,2013-06-04 17:22:00,
2013-06-04 12:25:00,67.4,57.3,29.18,South,171,3.6,6.3,70,0.00,,---,0.00,VWS V14.00,2013-06-04 17:25:00,
2013-06-04 12:28:00,67.4,57.3,29.18,South,173,6.3,6.3,70,0.00,,---,0.00,VWS V14.00,2013-06-04 17:28:00,
2013-06-04 12:31:00,67.4,57.3,29.18,SSE,165,4.0,4.9,70,0.00,,---,0.00,VWS V14.00,2013-06-04 17:31:00,
2013-06-04 12:34:00,67.4,57.3,29.18,SSE,168,4.0,4.9,70,0.00,,---,0.00,VWS V14.00,2013-06-04 17:34:00,
2013-06-04 12:37:00,67.4,57.3,29.18,South,172,4.5,5.4,70,0.00,,---,0.00,VWS V14.00,2013-06-04 17:37:00,
2013-06-04 12:40:00,67.4,57.3,29.18,SSE,167,4.0,5.8,70,0.00,,---,0.00,VWS V14.00,2013-06-04 17:40:00,
2013-06-04 12:45:00,67.4,57.3,29.18,SSE,168,6.3,6.3,70,0.00,,---,0.00,VWS V14.00,2013-06-04 17:45:00,
2013-06-04 12:49:00,67.4,57.3,29.18,SSE,167,4.0,6.3,70,0.00,,---,0.00,VWS V14.00,2013-06-04 17:49:00,
2013-06-04 12:52:00,67.4,57.3,29.18,SSE,158,8.1,8.1,70,0.00,,---,0.00,VWS V14.00,2013-06-04 17:52:00,
2013-06-04 12:55:00,67.4,57.3,29.18,SSE,150,4.9,8.3,70,0.00,,---,0.00,VWS V14.00,2013-06-04 17:55:00,
2013-06-04 12:58:00,67.4,57.3,29.18,SSE,154,3.6,8.3,70,0.00,,---,0.00,VWS V14.00,2013-06-04 17:58:00,
2013-06-04 13:00:00,67.4,57.3,29.18,South,173,5.4,8.3,70,0.00,,---,0.00,VWS V14.00,2013-06-04 18:00:00,
2013-06-04 13:01:00,67.4,57.3,29.18,South,170,3.1,6.7,70,0.00,,---,0.00,VWS V14.00,2013-06-04 18:01:00,
2013-06-04 13:04:00,67.4,57.3,29.18,SSE,151,0.0,6.7,70,0.00,,---,0.00,VWS V14.00,2013-06-04 18:04:00,
2013-06-04 13:10:00,67.4,57.3,29.15,SSE,156,4.9,6.7,70,0.00,,---,0.00,VWS V14.00,2013-06-04 18:10:00,
2013-06-04 13:13:00,67.4,57.3,29.15,SE,146,2.7,6.7,70,0.00,,---,0.00,VWS V14.00,2013-06-04 18:13:00,
2013-06-04 13:20:00,67.4,57.3,29.15,SSE,160,5.4,6.3,70,0.00,,---,0.00,VWS V14.00,2013-06-04 18:20:00,
2013-06-04 13:23:00,67.4,57.3,29.15,South,177,5.8,6.3,70,0.00,,---,0.00,VWS V14.00,2013-06-04 18:23:00,
2013-06-04 13:29:00,67.4,57.3,29.15,SSE,155,5.4,6.7,70,0.00,,---,0.00,VWS V14.00,2013-06-04 18:29:00,
2013-06-04 13:30:00,67.4,57.3,29.15,SSE,168,5.4,6.7,70,0.00,,---,0.00,VWS V14.00,2013-06-04 18:30:00,
2013-06-04 13:32:00,67.4,57.3,29.15,SSE,152,0.0,5.8,70,0.00,,---,0.00,VWS V14.00,2013-06-04 18:32:00,
2013-06-04 13:35:00,67.4,57.3,29.15,SSE,160,4.0,6.3,70,0.00,,---,0.00,VWS V14.00,2013-06-04 18:35:00,
2013-06-04 13:38:00,67.4,57.3,29.15,South,176,5.4,7.6,70,0.00,,---,0.00,VWS V14.00,2013-06-04 18:38:00,
2013-06-04 13:41:00,67.4,57.3,29.15,SSE,168,4.0,7.6,70,0.00,,---,0.00,VWS V14.00,2013-06-04 18:41:00,
2013-06-04 13:44:00,67.4,57.3,29.15,SE,144,2.7,7.6,70,0.00,,---,0.00,VWS V14.00,2013-06-04 18:44:00,
2013-06-04 13:47:00,67.4,57.3,29.15,South,171,3.1,5.8,70,0.00,,---,0.00,VWS V14.00,2013-06-04 18:47:00,
2013-06-04 13:50:00,67.4,57.3,29.15,South,169,4.9,5.8,70,0.00,,---,0.00,VWS V14.00,2013-06-04 18:50:00,
2013-06-04 13:53:00,67.4,57.3,29.15,South,185,4.0,5.8,70,0.00,,---,0.00,VWS V14.00,2013-06-04 18:53:00,
2013-06-04 13:56:00,67.4,57.3,29.15,South,170,2.7,5.8,70,0.00,,---,0.00,VWS V14.00,2013-06-04 18:56:00,
2013-06-04 14:00:00,67.4,57.3,29.15,SSE,156,4.0,5.8,70,0.00,,---,0.00,VWS V14.00,2013-06-04 19:00:00,
2013-06-04 14:05:00,67.4,57.3,29.15,SSE,165,4.0,5.4,70,0.00,,---,0.00,VWS V14.00,2013-06-04 19:05:00,
2013-06-04 14:08:00,67.4,57.3,29.15,SSE,166,4.0,5.4,70,0.00,,---,0.00,VWS V14.00,2013-06-04 19:08:00,
2013-06-04 14:11:00,67.4,57.3,29.15,South,169,5.8,5.8,70,0.00,,---,0.00,VWS V14.00,2013-06-04 19:11:00,
2013-06-04 14:15:00,67.4,57.3,29.15,South,170,4.9,5.8,70,0.00,,---,0.00,VWS V14.00,2013-06-04 19:15:00,
2013-06-04 14:17:00,67.4,57.3,29.15,South,173,4.9,5.4,70,0.00,,---,0.00,VWS V14.00,2013-06-04 19:17:00,
2013-06-04 14:20:00,67.4,57.3,29.15,South,173,3.6,5.4,70,0.00,,---,0.00,VWS V14.00,2013-06-04 19:20:00,
2013-06-04 14:26:00,67.4,57.3,29.12,South,177,5.4,5.8,70,0.00,,---,0.00,VWS V14.00,2013-06-04 19:26:00,
2013-06-04 14:29:00,67.4,57.3,29.12,South,171,5.4,5.8,70,0.00,,---,0.00,VWS V14.00,2013-06-04 19:29:00,
2013-06-04 14:30:00,67.4,57.3,29.12,South,175,6.3,6.3,70,0.00,,---,0.00,VWS V14.00,2013-06-04 19:30:00,
2013-06-04 14:32:00,67.4,57.3,29.12,SE,144,3.6,6.3,70,0.00,,---,0.00,VWS V14.00,2013-06-04 19:32:00,
2013-06-04 14:38:00,67.4,57.3,29.12,SSW,195,6.3,6.3,70,0.00,,---,0.00,VWS V14.00,2013-06-04 19:38:00,
2013-06-04 14:41:00,67.4,57.3,29.12,SSE,167,3.1,6.3,70,0.00,,---,0.00,VWS V14.00,2013-06-04 19:41:00,
2013-06-04 14:44:00,67.4,57.3,29.12,South,171,3.6,6.3,70,0.00,,---,0.00,VWS V14.00,2013-06-04 19:44:00,
2013-06-04 14:45:00,67.4,57.3,29.12,South,171,2.7,6.3,70,0.00,,---,0.00,VWS V14.00,2013-06-04 19:45:00,
2013-06-04 14:47:00,67.4,57.3,29.12,South,172,4.9,4.9,70,0.00,,---,0.00,VWS V14.00,2013-06-04 19:47:00,
2013-06-04 14:50:00,67.4,57.3,29.12,South,170,4.9,5.4,70,0.00,,---,0.00,VWS V14.00,2013-06-04 19:50:00,
2013-06-04 14:56:00,67.4,57.3,29.12,South,172,4.9,5.8,70,0.00,,---,0.00,VWS V14.00,2013-06-04 19:56:00,
2013-06-04 14:59:00,67.4,57.3,29.12,SSE,158,3.6,5.8,70,0.00,,---,0.00,VWS V14.00,2013-06-04 19:59:00,
2013-06-04 15:00:00,67.4,57.3,29.12,South,177,4.9,5.8,70,0.00,,---,0.00,VWS V14.00,2013-06-04 20:00:00,
2013-06-04 15:05:00,67.4,57.3,29.12,SSE,168,4.9,5.8,70,0.00,,---,0.00,VWS V14.00,2013-06-04 20:05:00,
2013-06-04 15:08:00,67.4,57.3,29.12,South,172,4.0,5.8,70,0.00,,---,0.00,VWS V14.00,2013-06-04 20:08:00,
2013-06-04 15:11:00,67.4,57.3,29.12,SSE,167,4.9,5.8,70,0.00,,---,0.00,VWS V14.00,2013-06-04 20:11:00,
2013-06-04 15:14:00,67.4,57.3,29.12,SSE,168,2.7,5.8,70,0.00,,---,0.00,VWS V14.00,2013-06-04 20:14:00,
2013-06-04 15:15:00,67.4,57.3,29.12,SSE,168,2.7,5.8,70,0.00,,---,0.00,VWS V14.00,2013-06-04 20:15:00,
2013-06-04 15:17:00,67.4,57.3,29.12,South,187,2.7,4.0,70,0.00,,---,0.00,VWS V14.00,2013-06-04 20:17:00,
2013-06-04 15:20:00,67.4,57.3,29.12,South,187,3.1,4.0,70,0.00,,---,0.00,VWS V14.00,2013-06-04 20:20:00,
2013-06-04 15:23:00,67.4,57.3,29.12,South,187,4.9,5.8,70,0.00,,---,0.00,VWS V14.00,2013-06-04 20:23:00,
2013-06-04 15:26:00,67.4,57.3,29.12,SSE,167,4.5,5.8,70,0.00,,---,0.00,VWS V14.00,2013-06-04 20:26:00,
2013-06-04 15:29:00,67.4,57.3,29.12,South,169,4.0,5.8,70,0.00,,---,0.00,VWS V14.00,2013-06-04 20:29:00,
2013-06-04 15:30:00,67.4,57.3,29.12,South,169,4.5,5.8,70,0.00,,---,0.00,VWS V14.00,2013-06-04 20:30:00,
2013-06-04 15:32:00,67.4,57.3,29.12,South,169,4.0,4.5,70,0.00,,---,0.00,VWS V14.00,2013-06-04 20:32:00,
2013-06-04 15:35:00,67.4,57.3,29.12,South,171,3.1,4.5,70,0.00,,---,0.00,VWS V14.00,2013-06-04 20:35:00,
2013-06-04 15:41:00,67.4,57.3,29.12,SSE,155,3.1,4.9,70,0.00,,---,0.00,VWS V14.00,2013-06-04 20:41:00,
2013-06-04 15:44:00,67.4,57.3,29.12,South,172,4.0,4.9,70,0.00,,---,0.00,VWS V14.00,2013-06-04 20:44:00,
2013-06-04 15:45:00,67.4,57.3,29.12,South,172,2.7,4.9,70,0.00,,---,0.00,VWS V14.00,2013-06-04 20:45:00,
2013-06-04 15:47:00,67.4,57.3,29.12,South,172,3.6,4.0,70,0.00,,---,0.00,VWS V14.00,2013-06-04 20:47:00,
2013-06-04 15:50:00,67.4,57.3,29.12,SE,128,4.0,5.4,70,0.00,,---,0.00,VWS V14.00,2013-06-04 20:50:00,
2013-06-04 15:56:00,67.4,57.3,29.12,SSE,162,4.0,5.4,70,0.00,,---,0.00,VWS V14.00,2013-06-04 20:56:00,
2013-06-04 15:59:00,67.4,57.3,29.12,South,187,4.0,8.7,70,0.00,,---,0.00,VWS V14.00,2013-06-04 20:59:00,
2013-06-04 16:00:00,67.4,57.3,29.12,SSE,166,7.6,8.7,70,0.00,,---,0.00,VWS V14.00,2013-06-04 21:00:00,
2013-06-04 16:02:00,67.4,57.3,29.12,SSE,159,4.0,7.6,70,0.00,,---,0.00,VWS V14.00,2013-06-04 21:02:00,
2013-06-04 16:08:00,67.4,57.3,29.12,SSE,167,5.8,7.6,70,0.00,,---,0.00,VWS V14.00,2013-06-04 21:08:00,
2013-06-04 16:11:00,67.4,57.3,29.12,ENE,64,3.1,7.6,70,0.00,,---,0.00,VWS V14.00,2013-06-04 21:11:00,
2013-06-04 16:17:00,67.4,57.3,29.12,SSE,162,3.6,4.0,70,0.00,,---,0.00,VWS V14.00,2013-06-04 21:17:00,
2013-06-04 16:20:00,67.4,57.3,29.12,SE,125,4.0,5.8,70,0.00,,---,0.00,VWS V14.00,2013-06-04 21:20:00,
2013-06-04 16:23:00,67.4,57.3,29.09,ESE,109,4.0,5.8,70,0.00,,---,0.00,VWS V14.00,2013-06-04 21:23:00,
2013-06-04 16:29:00,67.4,57.3,29.09,SSE,151,2.7,6.3,70,0.00,,---,0.00,VWS V14.00,2013-06-04 21:29:00,
2013-06-04 16:30:00,67.4,57.3,29.09,SSE,151,2.7,6.3,70,0.00,,---,0.00,VWS V14.00,2013-06-04 21:30:00,
2013-06-04 16:33:00,67.4,57.3,29.09,SE,129,3.6,5.8,70,0.00,,---,0.00,VWS V14.00,2013-06-04 21:33:00,
2013-06-04 16:39:00,67.4,57.3,29.09,ESE,110,0.0,5.8,70,0.00,,---,0.00,VWS V14.00,2013-06-04 21:39:00,
2013-06-04 16:45:00,67.4,57.3,29.09,South,190,0.0,5.8,70,0.00,,---,0.00,VWS V14.00,2013-06-04 21:45:00,
2013-06-04 16:51:00,67.4,57.3,29.09,SE,125,0.0,3.1,70,0.00,,---,0.00,VWS V14.00,2013-06-04 21:51:00,
2013-06-04 16:57:00,67.4,57.3,29.09,SE,141,0.0,3.1,70,0.00,,---,0.00,VWS V14.00,2013-06-04 21:57:00,
2013-06-04 17:00:00,67.4,57.3,29.09,SE,141,0.0,3.1,70,0.00,,---,0.00,VWS V14.00,2013-06-04 22:00:00,
2013-06-04 17:03:00,67.4,57.3,29.09,SE,141,0.0,0.0,70,0.00,,---,0.00,VWS V14.00,2013-06-04 22:03:00,
2013-06-04 17:06:00,67.4,57.3,29.09,ESE,117,0.0,0.0,70,0.00,,---,0.00,VWS V14.00,2013-06-04 22:06:00,
2013-06-04 17:12:00,67.4,57.3,29.09,SSE,147,0.0,3.1,70,0.00,,---,0.00,VWS V14.00,2013-06-04 22:12:00,
2013-06-04 17:15:00,67.4,57.3,29.09,SSE,167,2.2,3.1,70,0.00,,---,0.00,VWS V14.00,2013-06-04 22:15:00,
2013-06-04 17:18:00,67.4,57.3,29.09,ESE,111,0.0,2.7,70,0.00,,---,0.00,VWS V14.00,2013-06-04 22:18:00,
2013-06-04 17:24:00,67.4,57.3,29.09,ESE,117,0.0,2.7,70,0.00,,---,0.00,VWS V14.00,2013-06-04 22:24:00,
2013-06-04 17:27:00,67.4,57.3,29.09,ESE,122,0.0,2.7,70,0.00,,---,0.00,VWS V14.00,2013-06-04 22:27:00,
2013-06-04 17:30:00,67.4,57.3,29.09,ESE,122,0.0,2.7,70,0.00,,---,0.00,VWS V14.00,2013-06-04 22:30:00,
2013-06-04 17:33:00,67.4,57.3,29.09,ESE,122,0.0,0.0,70,0.00,,---,0.00,VWS V14.00,2013-06-04 22:33:00,
2013-06-04 17:36:00,67.4,57.3,29.09,ESE,122,0.0,0.0,70,0.00,,---,0.00,VWS V14.00,2013-06-04 22:36:00,
2013-06-04 17:39:00,67.4,57.3,29.09,SE,129,0.0,0.0,70,0.00,,---,0.00,VWS V14.00,2013-06-04 22:39:00,
2013-06-04 17:42:00,67.4,57.3,29.09,SSW,208,0.0,3.6,70,0.00,,---,0.00,VWS V14.00,2013-06-04 22:42:00,
2013-06-04 17:45:00,67.4,57.3,29.09,SSW,208,0.0,3.6,70,0.00,,---,0.00,VWS V14.00,2013-06-04 22:45:00,
2013-06-04 17:48:00,67.4,57.3,29.09,SSW,208,0.0,0.0,70,0.00,,---,0.00,VWS V14.00,2013-06-04 22:48:00,
2013-06-04 17:51:00,67.4,57.3,29.09,SSW,208,0.0,0.0,70,0.00,,---,0.00,VWS V14.00,2013-06-04 22:51:00,
2013-06-04 17:54:00,67.4,57.3,29.09,SSW,208,0.0,0.0,70,0.00,,---,0.00,VWS V14.00,2013-06-04 22:54:00,
2013-06-04 17:57:00,67.4,57.3,29.09,SSW,208,0.0,0.0,70,0.00,,---,0.00,VWS V14.00,2013-06-04 22:57:00,
2013-06-04 18:00:00,67.4,57.3,29.09,SSW,208,0.0,0.0,70,0.00,,---,0.00,VWS V14.00,2013-06-04 23:00:00,
2013-06-04 18:06:00,67.4,57.3,29.09,SSW,208,0.0,0.0,70,0.00,,---,0.00,VWS V14.00,2013-06-04 23:06:00,
2013-06-04 18:12:00,67.4,57.3,29.09,SSW,208,0.0,0.0,70,0.00,,---,0.00,VWS V14.00,2013-06-04 23:12:00,
2013-06-04 18:15:00,67.4,57.3,29.09,SSW,208,0.0,0.0,70,0.00,,---,0.00,VWS V14.00,2013-06-04 23:15:00,
2013-06-04 18:18:00,67.4,57.3,29.09,SSW,208,0.0,0.0,70,0.00,,---,0.00,VWS V14.00,2013-06-04 23:18:00,
2013-06-04 18:21:00,67.4,57.3,29.09,SSW,208,0.0,0.0,70,0.00,,---,0.00,VWS V14.00,2013-06-04 23:21:00,
2013-06-04 18:24:00,67.4,57.3,29.09,SSW,208,0.0,0.0,70,0.00,,---,0.00,VWS V14.00,2013-06-04 23:24:00,
2013-06-04 18:27:00,67.4,57.3,29.09,SSW,208,0.0,2.2,70,0.00,,---,0.00,VWS V14.00,2013-06-04 23:27:00,
2013-06-04 18:30:00,67.4,57.3,29.09,SSE,152,0.0,3.6,70,0.00,,---,0.00,VWS V14.00,2013-06-04 23:30:00,
2013-06-04 18:39:00,67.4,57.3,29.09,SE,135,0.0,4.0,70,0.00,,---,0.00,VWS V14.00,2013-06-04 23:39:00,
2013-06-04 18:45:00,67.4,57.3,29.09,South,175,0.0,4.0,70,0.00,,---,0.00,VWS V14.00,2013-06-04 23:45:00,
2013-06-04 18:48:00,67.4,57.3,29.09,South,184,0.0,4.0,70,0.00,,---,0.00,VWS V14.00,2013-06-04 23:48:00,
2013-06-04 18:51:00,67.4,57.3,29.09,South,169,0.0,4.0,70,0.00,,---,0.00,VWS V14.00,2013-06-04 23:51:00,
2013-06-04 18:54:00,67.4,57.3,29.09,ESE,103,2.2,4.0,70,0.00,,---,0.00,VWS V14.00,2013-06-04 23:54:00,
2013-06-04 18:57:00,67.4,57.3,29.09,South,173,0.0,4.0,70,0.00,,---,0.00,VWS V14.00,2013-06-04 23:57:00,
2013-06-04 19:00:00,67.4,57.3,29.09,SSE,166,3.6,3.6,70,0.00,,---,0.00,VWS V14.00,2013-06-05 00:00:00,
2013-06-04 19:10:00,67.4,57.3,29.09,South,180,3.1,6.3,70,0.00,,---,0.00,VWS V14.00,2013-06-05 00:10:00,
2013-06-04 19:13:00,67.4,57.3,29.09,SSE,155,3.6,6.3,70,0.00,,---,0.00,VWS V14.00,2013-06-05 00:13:00,
2013-06-04 19:15:00,67.4,57.3,29.09,SSW,193,3.6,6.3,70,0.00,,---,0.00,VWS V14.00,2013-06-05 00:15:00,
2013-06-04 19:16:00,67.4,57.3,29.09,South,170,4.0,5.4,70,0.00,,---,0.00,VWS V14.00,2013-06-05 00:16:00,
2013-06-04 19:19:00,67.4,57.3,29.09,South,176,3.6,5.4,70,0.00,,---,0.00,VWS V14.00,2013-06-05 00:19:00,
2013-06-04 19:25:00,67.4,57.3,29.12,South,187,4.0,5.8,70,0.00,,---,0.00,VWS V14.00,2013-06-05 00:25:00,
2013-06-04 19:28:00,67.4,57.3,29.12,South,185,4.0,5.8,70,0.00,,---,0.00,VWS V14.00,2013-06-05 00:28:00,
2013-06-04 19:30:00,67.4,57.3,29.12,SSW,195,3.1,5.8,70,0.00,,---,0.00,VWS V14.00,2013-06-05 00:30:00,
2013-06-04 19:31:00,67.4,57.3,29.12,SSW,195,3.1,3.1,70,0.00,,---,0.00,VWS V14.00,2013-06-05 00:31:00,
2013-06-04 19:34:00,67.4,57.3,29.12,South,184,5.4,5.8,70,0.00,,---,0.00,VWS V14.00,2013-06-05 00:34:00,
2013-06-04 19:37:00,67.4,57.3,29.12,South,172,4.9,5.8,70,0.00,,---,0.00,VWS V14.00,2013-06-05 00:37:00,
2013-06-04 19:43:00,67.4,57.3,29.12,SSE,148,2.7,5.8,70,0.00,,---,0.00,VWS V14.00,2013-06-05 00:43:00,
2013-06-04 19:45:00,67.4,57.3,29.12,SSE,166,2.2,5.8,70,0.00,,---,0.00,VWS V14.00,2013-06-05 00:45:00,
2013-06-04 19:46:00,67.4,57.3,29.12,SSE,166,0.0,2.2,70,0.00,,---,0.00,VWS V14.00,2013-06-05 00:46:00,
2013-06-04 19:52:00,67.4,57.3,29.12,South,190,0.0,4.0,70,0.00,,---,0.00,VWS V14.00,2013-06-05 00:52:00,
2013-06-04 19:55:00,67.4,57.3,29.12,South,190,0.0,4.0,70,0.00,,---,0.00,VWS V14.00,2013-06-05 00:55:00,
2013-06-04 19:58:00,67.4,57.3,29.12,South,190,0.0,4.0,70,0.00,,---,0.00,VWS V14.00,2013-06-05 00:58:00,
2013-06-04 20:01:00,67.4,57.3,29.12,South,190,0.0,0.0,70,0.00,,---,0.00,VWS V14.00,2013-06-05 01:01:00,
2013-06-04 20:04:00,67.4,57.3,29.12,South,190,0.0,0.0,70,0.00,,---,0.00,VWS V14.00,2013-06-05 01:04:00,
2013-06-04 20:07:00,67.4,57.3,29.12,South,190,0.0,0.0,70,0.00,,---,0.00,VWS V14.00,2013-06-05 01:07:00,
2013-06-04 20:10:00,67.4,57.3,29.12,South,190,0.0,0.0,70,0.00,,---,0.00,VWS V14.00,2013-06-05 01:10:00,
2013-06-04 20:13:00,67.4,57.3,29.12,South,190,0.0,0.0,70,0.00,,---,0.00,VWS V14.00,2013-06-05 01:13:00,
2013-06-04 20:15:00,67.4,57.3,29.12,South,190,0.0,0.0,70,0.00,,---,0.00,VWS V14.00,2013-06-05 01:15:00,
2013-06-04 20:19:00,67.4,57.3,29.12,South,190,0.0,0.0,70,0.00,,---,0.00,VWS V14.00,2013-06-05 01:19:00,
2013-06-04 20:22:00,72.5,59.6,29.12,East,92,0.0,2.7,64,0.00,,---,0.00,VWS V14.00,2013-06-05 01:22:00,
2013-06-04 20:28:00,72.5,59.6,29.12,ESE,113,0.0,2.7,64,0.00,,---,0.00,VWS V14.00,2013-06-05 01:28:00,
2013-06-04 20:30:00,72.5,59.6,29.12,ESE,113,0.0,2.7,64,0.00,,---,0.00,VWS V14.00,2013-06-05 01:30:00,
2013-06-04 20:34:00,72.1,60.2,29.12,ESE,107,0.0,3.1,66,0.00,,---,0.00,VWS V14.00,2013-06-05 01:34:00,
2013-06-04 20:37:00,72.1,60.2,29.12,ESE,107,0.0,3.1,66,0.00,,---,0.00,VWS V14.00,2013-06-05 01:37:00,
2013-06-04 20:40:00,72.1,60.2,29.12,SSW,212,0.0,3.6,66,0.00,,---,0.00,VWS V14.00,2013-06-05 01:40:00,
2013-06-04 20:45:00,72.1,60.2,29.12,East,81,0.0,3.6,66,0.00,,---,0.00,VWS V14.00,2013-06-05 01:45:00,
2013-06-04 20:49:00,72.1,60.2,29.12,East,81,0.0,0.0,66,0.00,,---,0.00,VWS V14.00,2013-06-05 01:49:00,
2013-06-04 20:55:00,72.1,60.2,29.12,East,81,0.0,0.0,66,0.00,,---,0.00,VWS V14.00,2013-06-05 01:55:00,
2013-06-04 20:58:00,72.1,60.2,29.12,East,81,0.0,0.0,66,0.00,,---,0.00,VWS V14.00,2013-06-05 01:58:00,
2013-06-04 21:01:00,72.1,60.2,29.12,SE,132,0.0,0.0,66,0.00,,---,0.00,VWS V14.00,2013-06-05 02:01:00,
2013-06-04 21:07:00,72.1,60.2,29.12,SE,132,0.0,3.1,66,0.00,,---,0.00,VWS V14.00,2013-06-05 02:07:00,
2013-06-04 21:10:00,72.1,60.2,29.12,SE,132,0.0,3.1,66,0.00,,---,0.00,VWS V14.00,2013-06-05 02:10:00,
2013-06-04 21:13:00,72.1,60.2,29.12,South,184,2.7,3.6,66,0.00,,---,0.00,VWS V14.00,2013-06-05 02:13:00,
2013-06-04 21:16:00,72.1,60.2,29.12,ESE,103,2.2,2.7,66,0.00,,---,0.00,VWS V14.00,2013-06-05 02:16:00,
2013-06-04 21:19:00,72.1,60.2,29.12,ESE,103,2.7,3.6,66,0.00,,---,0.00,VWS V14.00,2013-06-05 02:19:00,
2013-06-04 21:22:00,72.1,60.2,29.12,ESE,103,0.0,3.6,66,0.00,,---,0.00,VWS V14.00,2013-06-05 02:22:00,
2013-06-04 21:25:00,72.1,60.2,29.12,SE,142,0.0,3.6,66,0.00,,---,0.00,VWS V14.00,2013-06-05 02:25:00,
2013-06-04 21:28:00,72.1,60.2,29.12,SE,127,0.0,3.6,66,0.00,,---,0.00,VWS V14.00,2013-06-05 02:28:00,
2013-06-04 21:30:00,72.1,60.2,29.12,SE,127,0.0,3.6,66,0.00,,---,0.00,VWS V14.00,2013-06-05 02:30:00,
2013-06-04 21:31:00,72.1,60.2,29.12,SE,127,0.0,0.0,66,0.00,,---,0.00,VWS V14.00,2013-06-05 02:31:00,
2013-06-04 21:37:00,72.1,60.2,29.12,ESE,110,0.0,0.0,66,0.00,,---,0.00,VWS V14.00,2013-06-05 02:37:00,
2013-06-04 21:40:00,72.1,60.2,29.12,ESE,110,0.0,0.0,66,0.00,,---,0.00,VWS V14.00,2013-06-05 02:40:00,
2013-06-04 21:43:00,72.1,60.2,29.12,South,182,0.0,2.7,66,0.00,,---,0.00,VWS V14.00,2013-06-05 02:43:00,
2013-06-04 21:45:00,72.1,60.2,29.12,South,182,0.0,2.7,66,0.00,,---,0.00,VWS V14.00,2013-06-05 02:45:00,
2013-06-04 21:46:00,72.1,60.2,29.12,South,182,0.0,0.0,66,0.00,,---,0.00,VWS V14.00,2013-06-05 02:46:00,
2013-06-04 21:49:00,72.1,60.2,29.12,SSE,152,0.0,0.0,66,0.00,,---,0.00,VWS V14.00,2013-06-05 02:49:00,
2013-06-04 21:52:00,72.1,60.2,29.12,South,182,2.7,3.1,66,0.00,,---,0.00,VWS V14.00,2013-06-05 02:52:00,
2013-06-04 21:58:00,72.1,60.2,29.15,ESE,120,0.0,3.1,66,0.00,,---,0.00,VWS V14.00,2013-06-05 02:58:00,
2013-06-04 22:04:00,72.1,60.2,29.15,SE,124,0.0,3.6,66,0.00,,---,0.00,VWS V14.00,2013-06-05 03:04:00,
2013-06-04 22:07:00,72.1,60.2,29.15,SSE,166,0.0,3.6,66,0.00,,---,0.00,VWS V14.00,2013-06-05 03:07:00,
2013-06-04 22:10:00,72.1,60.2,29.15,East,99,0.0,3.6,66,0.00,,---,0.00,VWS V14.00,2013-06-05 03:10:00,
2013-06-04 22:20:00,72.1,60.2,29.15,SSE,166,3.6,5.4,66,0.00,,---,0.00,VWS V14.00,2013-06-05 03:20:00,
2013-06-04 22:23:00,72.1,60.2,29.15,South,171,2.7,5.4,66,0.00,,---,0.00,VWS V14.00,2013-06-05 03:23:00,
2013-06-04 22:26:00,72.1,60.2,29.15,SSE,153,0.0,5.4,66,0.00,,---,0.00,VWS V14.00,2013-06-05 03:26:00,
2013-06-04 22:29:00,72.1,60.2,29.15,WSW,246,0.0,5.4,66,0.00,,---,0.00,VWS V14.00,2013-06-05 03:29:00,
2013-06-04 22:32:00,68.9,59.1,29.15,WSW,246,0.0,0.0,71,0.00,,---,0.00,VWS V14.00,2013-06-05 03:32:00,
2013-06-04 22:38:00,68.7,58.9,29.15,WSW,246,0.0,0.0,71,0.00,,---,0.00,VWS V14.00,2013-06-05 03:38:00,
2013-06-04 22:41:00,68.7,58.9,29.15,WSW,246,0.0,0.0,71,0.00,,---,0.00,VWS V14.00,2013-06-05 03:41:00,
2013-06-04 22:44:00,68.5,58.8,29.15,WSW,246,0.0,0.0,71,0.00,,---,0.00,VWS V14.00,2013-06-05 03:44:00,
2013-06-04 22:45:00,68.5,58.8,29.15,South,177,2.7,2.7,71,0.00,,---,0.00,VWS V14.00,2013-06-05 03:45:00,
2013-06-04 22:47:00,68.5,58.8,29.15,South,177,0.0,3.1,71,0.00,,---,0.00,VWS V14.00,2013-06-05 03:47:00,
2013-06-04 22:50:00,68.5,59.2,29.15,South,177,0.0,3.1,72,0.00,,---,0.00,VWS V14.00,2013-06-05 03:50:00,
2013-06-04 22:53:00,68.5,59.2,29.15,South,177,0.0,3.1,72,0.00,,---,0.00,VWS V14.00,2013-06-05 03:53:00,
2013-06-04 22:56:00,68.3,59.0,29.15,South,177,0.0,3.1,72,0.00,,---,0.00,VWS V14.00,2013-06-05 03:56:00,
2013-06-04 22:59:00,68.3,59.0,29.15,SSW,194,0.0,3.6,72,0.00,,---,0.00,VWS V14.00,2013-06-05 03:59:00,
2013-06-04 23:00:00,68.3,59.0,29.15,SSW,194,0.0,3.6,72,0.00,,---,0.00,VWS V14.00,2013-06-05 04:00:00,
2013-06-04 23:02:00,68.3,59.4,29.15,SSW,194,0.0,0.0,73,0.00,,---,0.00,VWS V14.00,2013-06-05 04:02:00,
2013-06-04 23:05:00,68.2,59.2,29.15,South,189,3.1,3.6,73,0.00,,---,0.00,VWS V14.00,2013-06-05 04:05:00,
2013-06-04 23:08:00,68.2,59.2,29.15,South,188,2.2,4.0,73,0.00,,---,0.00,VWS V14.00,2013-06-05 04:08:00,
2013-06-04 23:11:00,68.2,59.6,29.15,South,188,0.0,4.0,74,0.00,,---,0.00,VWS V14.00,2013-06-05 04:11:00,
2013-06-04 23:14:00,68.2,59.6,29.15,South,188,0.0,4.0,74,0.00,,---,0.00,VWS V14.00,2013-06-05 04:14:00,
2013-06-04 23:15:00,68.2,59.6,29.15,South,188,0.0,4.0,74,0.00,,---,0.00,VWS V14.00,2013-06-05 04:15:00,
2013-06-04 23:17:00,68.2,59.6,29.15,South,188,0.0,0.0,74,0.00,,---,0.00,VWS V14.00,2013-06-05 04:17:00,
2013-06-04 23:23:00,68.0,59.4,29.15,South,188,0.0,0.0,74,0.00,,---,0.00,VWS V14.00,2013-06-05 04:23:00,
2013-06-04 23:29:00,67.6,59.4,29.12,South,188,0.0,0.0,75,0.00,,---,0.00,VWS V14.00,2013-06-05 04:29:00,
2013-06-04 23:30:00,67.6,59.4,29.12,South,188,0.0,0.0,75,0.00,,---,0.00,VWS V14.00,2013-06-05 04:30:00,
2013-06-04 23:35:00,67.4,59.6,29.12,South,188,0.0,0.0,76,0.00,,---,0.00,VWS V14.00,2013-06-05 04:35:00,
2013-06-04 23:41:00,67.3,59.5,29.15,South,188,0.0,0.0,76,0.00,,---,0.00,VWS V14.00,2013-06-05 04:41:00,
2013-06-04 23:44:00,67.3,59.5,29.15,South,188,0.0,0.0,76,0.00,,---,0.00,VWS V14.00,2013-06-05 04:44:00,
2013-06-04 23:47:00,67.1,59.6,29.15,South,188,0.0,0.0,77,0.00,,---,0.00,VWS V14.00,2013-06-05 04:47:00,
2013-06-04 23:50:00,67.1,59.6,29.15,South,188,0.0,0.0,77,0.00,,---,0.00,VWS V14.00,2013-06-05 04:50:00,
2013-06-04 23:53:00,66.9,59.5,29.15,South,188,0.0,0.0,77,0.00,,---,0.00,VWS V14.00,2013-06-05 04:53:00,
2013-06-04 23:56:00,66.7,59.3,29.15,South,188,0.0,0.0,77,0.00,,---,0.00,VWS V14.00,2013-06-05 04:56:00,
2013-06-04 23:59:00,66.7,59.7,29.15,South,188,0.0,0.0,78,0.00,,---,0.00,VWS V14.00,2013-06-05 04:59:00,